Flag for United Kingdom Weather past 2 weeks in Milton Keynes, England, United Kingdom

Now
63 °F

Sunny.


Feels Like: 63 °F
Forecast: 49 / 63 °F
Wind: 9 mph from Northwest

Location: Luton Airport

Current Time: May 22, 2015 at 10:33:19 PM

Latest Report: May 22, 2015 at 9:50 PM


Visibility: 10 mi

Pressure: 30.21 "Hg

Humidity: 77%

Dew point: 55 °F

Location of Milton KeynesLocation

Historic Weather in Milton Keynes — Graph

°F

Milton Keynes temperature yesterday

Maximum temperature yesterday: 66 °F (at 3:20 PM)
Minimum temperature yesterday: 41 °F (at 1:20 AM)
Average temperature yesterday: 54 °F

Past Weeks' High & Low Weather Summary

 TemperatureHumidityPressure
High68 °F (May 11, 2:50 PM)100% (May 10, 5:20 AM)30.33 "Hg (May 10, 5:20 AM)
Low41 °F (May 13, 4:20 AM)43% (May 21, 3:20 PM)29.53 "Hg (May 18, 12:50 PM)
Average52 °F77%30.04 "Hg
* Reported May 7 9:20 PM — May 22 9:20 PM, Milton Keynes, Weather by CustomWeather, © 2015

Note: Actual official high and low records may vary slightly from our data, if they occured in-between our weather recording intervals... More about our weather records

Advertising

Milton Keynes weather history for previous 24 hours

 ConditionsComfort  
Time TempWeatherWind HumidityBarometerVisibility
9:20 PM
Fri, May 22
63 °FSunny.9 mph73%30.21 "Hg10 mi
8:50 PM63 °FSunny.9 mph73%30.21 "Hg10 mi
8:20 PM64 °FSunny.8 mph68%30.21 "Hg10 mi
7:50 PM64 °FScattered clouds.8 mph68%30.21 "HgN/A
7:20 PM63 °FScattered clouds.7 mph77%30.21 "HgN/A
6:50 PM66 °FScattered clouds.8 mph73%30.21 "HgN/A
6:20 PM64 °FScattered clouds.7 mph73%30.21 "HgN/A
5:50 PM64 °FScattered clouds.10 mph73%30.21 "HgN/A
5:20 PM66 °FScattered clouds.6 mph68%30.21 "HgN/A
4:50 PM66 °FScattered clouds.6 mph64%30.21 "HgN/A
4:20 PM66 °FScattered clouds.7 mph68%30.21 "HgN/A
3:50 PM66 °FScattered clouds.8 mph68%30.21 "HgN/A
3:20 PM66 °FScattered clouds.9 mph68%30.24 "HgN/A
2:50 PM63 °FPartly sunny.13 mph77%30.24 "HgN/A
2:20 PM63 °FBroken clouds.12 mph77%30.24 "HgN/A
1:50 PM64 °FPartly sunny.9 mph73%30.24 "HgN/A
1:20 PM63 °FPartly sunny.9 mph73%30.24 "HgN/A
12:50 PM64 °FPartly sunny.9 mph73%30.24 "HgN/A
12:20 PM63 °FPartly sunny.7 mph68%30.27 "HgN/A
11:50 AM64 °FOvercast.7 mph64%30.27 "HgN/A
11:20 AM63 °FPassing clouds.6 mph68%30.27 "HgN/A
10:50 AM63 °FScattered clouds.6 mph68%30.27 "HgN/A
10:20 AM61 °FPartly sunny.6 mph68%30.27 "HgN/A
9:50 AM59 °FCool.7 mph72%30.27 "HgN/A
9:20 AM59 °FCool.5 mph68%30.27 "HgN/A
8:50 AM57 °FPassing clouds.5 mph72%30.27 "HgN/A
8:20 AM57 °FCool.5 mph77%30.27 "HgN/A
7:50 AM52 °FSunny.3 mph88%30.27 "Hg10 mi
7:20 AM50 °FSunny.3 mph94%30.27 "Hg10 mi
6:50 AM48 °FSunny.2 mph94%30.27 "Hg10 mi
6:20 AM48 °FSunny.3 mph94%30.27 "Hg10 mi
5:50 AM46 °FClear.2 mph93%30.27 "Hg10 mi
5:20 AM46 °FClear.No wind93%30.27 "Hg10 mi
4:50 AM48 °FClear.7 mph87%30.27 "Hg10 mi
4:20 AM48 °FClear.8 mph87%30.30 "Hg10 mi
3:50 AM45 °FClear.7 mph93%30.30 "Hg10 mi
3:20 AM46 °FClear.9 mph87%30.30 "Hg10 mi
2:50 AM46 °FClear.9 mph93%30.30 "Hg10 mi
2:20 AM46 °FClear.8 mph87%30.30 "Hg10 mi
1:50 AM48 °FClear.9 mph87%30.30 "Hg10 mi
1:20 AM50 °FClear.14 mph82%30.30 "Hg10 mi
12:50 AM50 °FClear.10 mph82%30.30 "Hg10 mi
12:20 AM50 °FClear.10 mph82%30.30 "Hg10 mi
11:50 PM
Thu, May 21
52 °FCool.14 mph77%30.30 "HgN/A
11:20 PM52 °FClear.12 mph77%30.30 "Hg10 mi
10:20 PM54 °FClear.13 mph67%30.30 "Hg10 mi
Weather by CustomWeather, © 2015

See weather overviewHow to use our weather pages